GW4636 Weather Reports


time (UTC)temp
F
wind
direction
speed
knots
gust
knots
rain 1hr
in
rain 24hr
in
rain mn
in
humidity
%
barometer
mb
20260504201542 83 85 5.2 13.9 0.00 0.00 0.00 54 1014.9
20260504200048 82 54 6.1 13.0 0.00 0.00 0.00 53 1015.1
20260504194545 82 65 5.2 13.0 0.00 0.00 0.00 55 1015.1
20260504193042 82 82 6.1 13.9 0.00 0.00 0.00 52 1015.2
20260504191549 82 55 5.2 13.0 0.00 0.00 0.00 53 1015.4
20260504190038 82 93 7.0 12.2 0.00 0.00 0.00 53 1015.8
20260504184548 83 98 7.8 12.2 0.00 0.00 0.00 51 1015.9
20260504183049 83 67 5.2 11.3 0.00 0.00 0.00 49 1016.1
20260504181547 83 83 5.2 11.3 0.00 0.00 0.00 50 1016.3
20260504180041 82 69 5.2 12.2 0.00 0.00 0.00 53 1016.5
20260504174535 81 70 7.0 11.3 0.00 0.00 0.00 51 1016.7
20260504173035 83 44 6.1 10.4 0.00 0.00 0.00 52 1016.7
20260504171542 80 62 5.2 9.6 0.00 0.00 0.00 54 1016.8
20260504081545 68 24 4.3 7.8 0.00 0.03 0.00 80 1015.7
20260504044541 68 11 1.7 7.0 0.00 0.14 0.00 80 1017.5
20260504043040 68 15 1.7 6.1 0.00 0.14 0.00 80 1017.7
20260504041535 68 18 1.7 7.0 0.00 0.14 0.00 80 1017.7
20260504040037 68 5 1.7 7.0 0.00 0.14 0.00 82 1017.7
20260504034552 69 46 1.7 6.1 0.00 0.14 0.14 78 1017.8
20260504033033 69 19 1.7 7.0 0.00 0.14 0.14 78 1017.4
20260504031541 69 40 1.7 4.3 0.00 0.14 0.14 78 1017.6
20260504030045 69 31 1.7 7.0 0.00 0.14 0.14 78 1017.7
20260504024537 70 31 2.6 7.0 0.00 0.14 0.14 77 1017.6
20260504023058 70 63 1.7 7.8 0.00 0.14 0.14 77 1017.5
20260504021540 70 32 1.7 6.1 0.00 0.14 0.14 76 1017.4
20260504020040 70 52 3.5 8.7 0.00 0.14 0.14 76 1017.3
20260504014545 70 43 2.6 7.8 0.00 0.14 0.14 75 1017.3
20260504013044 71 60 4.3 8.7 0.00 0.14 0.14 74 1017.2
20260504011543 71 46 3.5 10.4 0.00 0.14 0.14 74 1017.2
20260504010051 71 63 2.6 8.7 0.00 0.14 0.14 73 1016.9
20260504004557 71 26 4.3 10.4 0.00 0.14 0.14 73 1016.6
20260504003040 72 77 3.5 7.8 0.00 0.14 0.14 72 1016.6
20260504001535 72 50 3.5 13.0 0.00 0.14 0.14 72 1016.5
20260504000037 73 76 6.1 11.3 0.00 0.14 0.14 70 1016.2
20260503234541 73 23 5.2 8.7 0.00 0.17 0.14 70 1016.1
20260503233034 73 46 4.3 12.2 0.00 0.17 0.14 70 1016.2
20260503231535 73 46 4.3 13.0 0.00 0.17 0.14 69 1016.1
20260503230035 74 64 4.3 9.6 0.00 0.17 0.14 70 1016.1
20260503224535 74 42 6.1 11.3 0.00 0.18 0.14 69 1016.1
20260503223036 75 60 6.1 11.3 0.00 0.18 0.14 69 1016.0
20260503221541 75 58 5.2 11.3 0.00 0.18 0.14 68 1015.9
20260503220035 75 67 4.3 10.4 0.00 0.18 0.14 68 1015.9
20260503214535 75 82 4.3 10.4 0.00 0.23 0.14 68 1015.8
20260503213046 76 53 4.3 11.3 0.00 0.23 0.14 67 1015.8
20260503211541 77 59 3.5 7.8 0.00 0.23 0.14 66 1015.8
20260503210048 77 78 5.2 11.3 0.00 0.23 0.14 64 1015.8
20260503204546 77 352 5.2 9.6 0.00 0.23 0.14 64 1015.9
20260503203041 77 69 4.3 10.4 0.00 0.23 0.14 64 1016.0